Hourly Data Report for August 17, 2021

KUGLUKTUK A
NUNAVUT
Current Station Operator: NAVCAN

67°49'00.000" N
115°08'38.000" W
22.60 m
2300903
71938
YCO

Download Data

Hourly Data (August 2021)
Hourly Data Report for August 17, 2021
TIME
LST
Temp Definition
°C
Dew Point Definition
°C
Rel Hum Definition
%
Precip. Amount Definition
mm

Wind Dir Definition
10's deg

Wind Spd Definition
km/h
Visibility Definition
km
Stn Press Definition
kPa
Hmdx Definition


Wind Chill Definition


Weather Definition


00:00 9.2 8.1 93   31 8 24.1 100.44     LegendNANA
01:00 9.2 8.2 93   20 7 24.1 100.45     LegendNANA
02:00 8.2 7.0 92   20 12 24.1 100.45     Mostly Cloudy
03:00 10.6 7.8 83   24 17 24.1 100.47     LegendNANA
04:00 9.7 7.5 86   22 18 24.1 100.49     LegendNANA
05:00 8.9 6.7 86   23 20 24.1 100.50     Mostly Cloudy
06:00 7.7 6.2 90   21 15 24.1 100.51     LegendNANA
07:00 10.7 7.1 78   20 4 24.1 100.51     LegendNANA
08:00 13.0 7.5 69   22 18 24.1 100.49     Mostly Cloudy
09:00 14.2 7.8 65   22 19 24.1 100.47     LegendNANA
10:00 15.4 8.9 65   22 17 24.1 100.45     LegendNANA
11:00 16.5 8.1 57   21 21 24.1 100.44     Mostly Cloudy
12:00 17.4 8.4 55   21 17 24.1 100.39     LegendNANA
13:00 18.5 6.9 46   23 13 24.1 100.36     LegendNANA
14:00 18.4 6.3 45   19 12 24.1 100.36     Mostly Cloudy
15:00 19.0 7.7 47   22 16 24.1 100.34     LegendNANA
16:00 18.9 7.3 47   21 21 24.1 100.32     LegendNANA
17:00 18.9 7.0 46   20 17 24.1 100.29     Cloudy
18:00 18.3 7.8 50   17 13 24.1 100.27     LegendNANA
19:00 17.1 8.9 58   16 15 24.1 100.23     LegendNANA
20:00 16.1 8.5 61   16 16 24.1 100.21     Cloudy
21:00 15.3 8.1 62   17 18 24.1 100.19     LegendNANA
22:00 15.2 7.7 61   17 24 24.1 100.16     LegendNANA
23:00 14.7 7.4 61   19 24 24.1 100.12     Cloudy

Notes on Data Quality.

Legend

  • E = Estimated
  • M = Missing
  • NA = Not Available*
  • [empty] = Indicates an unobserved value
Date modified: